TGW284 WIMM-OEMA

Flight info

Callsign TGW284
Flight time N/A
Altitude 34000
Route MAIMU1A/05 MAIMU DCT MEMAK N563 XOKRO/N0493F360 N563 REXOD/N0485F380 L883 UMILA N569 TOKRA DCT ITRUX Y511 ELONU
Aircraft B789/H-SDE1E2E3FGHIJ2J3J4J5M1RWXY/LB1D1

Departure

Time 2026-04-24 11:14
Airport Kualanamu International Airport (WIMM)

Arrival

Time N/A
Airport Prince Mohammad Bin Abdulaziz Airport (OEMA)
Time Latitude Longitude Altitude Speed Heading
2026-04-24 11:03 3.63611 98.87138 45 ft 3 kts 227°
2026-04-24 11:03 3.63583 98.87109 45 ft 10 kts 225°
2026-04-24 11:03 3.63514 98.87042 44 ft 16 kts 224°
2026-04-24 11:03 3.63435 98.86963 44 ft 16 kts 225°
2026-04-24 11:04 3.63352 98.86881 43 ft 17 kts 224°
2026-04-24 11:04 3.63265 98.86797 44 ft 18 kts 225°
2026-04-24 11:04 3.63178 98.86708 44 ft 18 kts 225°
2026-04-24 11:04 3.63088 98.86619 44 ft 18 kts 225°
2026-04-24 11:05 3.62996 98.86527 44 ft 19 kts 224°
2026-04-24 11:05 3.62904 98.86433 44 ft 19 kts 233°
2026-04-24 11:05 3.62824 98.86338 45 ft 17 kts 207°
2026-04-24 11:05 3.62737 98.86269 43 ft 16 kts 224°
2026-04-24 11:06 3.62657 98.86188 45 ft 17 kts 225°
2026-04-24 11:06 3.62578 98.86111 45 ft 13 kts 225°
2026-04-24 11:06 3.62559 98.86091 45 ft 0 kts 225°
2026-04-24 11:08 3.62558 98.86090 45 ft 1 kts 224°
2026-04-24 11:09 3.62543 98.86076 24 ft 5 kts 224°
2026-04-24 11:09 3.62513 98.86040 46 ft 8 kts 234°
2026-04-24 11:09 3.62508 98.85983 44 ft 10 kts 278°
2026-04-24 11:09 3.62520 98.85951 43 ft 0 kts 301°
2026-04-24 11:11 3.62522 98.85950 40 ft 0 kts 305°
2026-04-24 11:11 3.62522 98.85949 40 ft 0 kts 305°
2026-04-24 11:11 3.62534 98.85933 42 ft 6 kts 310°
2026-04-24 11:12 3.62578 98.85900 41 ft 9 kts 338°
2026-04-24 11:12 3.62630 98.85911 40 ft 7 kts 40°
2026-04-24 11:12 3.62670 98.85949 42 ft 9 kts 45°
2026-04-24 11:12 3.62680 98.85959 43 ft 0 kts 45°
2026-04-24 11:13 3.62688 98.85967 43 ft 7 kts 45°
2026-04-24 11:13 3.62783 98.86061 43 ft 35 kts 44°
2026-04-24 11:13 3.63061 98.86337 41 ft 79 kts 45°
2026-04-24 11:14 3.63603 98.86878 41 ft 140 kts 45°
2026-04-24 11:14 3.64412 98.87691 218 ft 179 kts 45°
2026-04-24 11:14 3.65324 98.88562 819 ft 183 kts 44°
2026-04-24 11:14 3.66541 98.89066 1042 ft 204 kts
2026-04-24 11:15 3.67872 98.88569 1611 ft 209 kts 326°
2026-04-24 11:15 3.68851 98.87452 2123 ft 220 kts 308°
2026-04-24 11:15 3.69782 98.86179 2550 ft 233 kts 307°
2026-04-24 11:15 3.70817 98.84867 2997 ft 246 kts 309°
2026-04-24 11:16 3.71923 98.83532 3417 ft 259 kts 309°
2026-04-24 11:16 3.73093 98.82108 3919 ft 268 kts 309°
2026-04-24 11:16 3.74289 98.80632 4568 ft 271 kts 308°
2026-04-24 11:16 3.75481 98.79161 5190 ft 273 kts 309°
2026-04-24 11:17 3.76676 98.77690 5764 ft 280 kts 309°
2026-04-24 11:17 3.77908 98.76177 6555 ft 281 kts 309°
2026-04-24 11:17 3.79148 98.74652 7261 ft 284 kts 309°
2026-04-24 11:17 3.80403 98.73108 7944 ft 288 kts 309°
2026-04-24 11:18 3.81661 98.71539 8637 ft 291 kts 307°
2026-04-24 11:18 3.82563 98.69700 9202 ft 296 kts 290°
2026-04-24 11:18 3.83269 98.67751 9904 ft 299 kts 290°
2026-04-24 11:18 3.84022 98.65784 10397 ft 309 kts 291°
2026-04-24 11:19 3.84835 98.63729 10702 ft 325 kts 292°
2026-04-24 11:19 3.85678 98.61572 11033 ft 341 kts 291°
2026-04-24 11:19 3.86549 98.59306 11353 ft 356 kts 291°
2026-04-24 11:19 3.87457 98.56950 11678 ft 371 kts 291°
2026-04-24 11:20 3.88411 98.54492 11987 ft 386 kts 291°
2026-04-24 11:20 3.89396 98.51955 12409 ft 395 kts 291°
2026-04-24 11:20 3.90396 98.49371 13023 ft 400 kts 291°
2026-04-24 11:20 3.91407 98.46770 13729 ft 400 kts 292°
2026-04-24 11:21 3.92437 98.44155 14173 ft 409 kts 291°
2026-04-24 11:21 3.93454 98.41475 14674 ft 414 kts 291°
2026-04-24 11:21 3.94486 98.38775 15257 ft 417 kts 291°
2026-04-24 11:21 3.95549 98.36056 15828 ft 420 kts 291°
2026-04-24 11:22 3.96617 98.33316 16402 ft 424 kts 291°
2026-04-24 11:22 3.97683 98.30550 16940 ft 428 kts 291°
2026-04-24 11:22 3.98757 98.27758 17485 ft 431 kts 291°
2026-04-24 11:22 3.99847 98.24949 18025 ft 435 kts 291°
2026-04-24 11:23 4.00948 98.22116 18484 ft 438 kts 291°
2026-04-24 11:23 4.02053 98.19263 18948 ft 441 kts 291°
2026-04-24 11:23 4.03161 98.16393 19416 ft 443 kts 291°
2026-04-24 11:23 4.04280 98.13501 19882 ft 446 kts 291°
2026-04-24 11:24 4.05406 98.10596 20340 ft 449 kts 291°
2026-04-24 11:24 4.06537 98.07674 20797 ft 451 kts 291°
2026-04-24 11:24 4.07674 98.04734 21250 ft 454 kts 291°
2026-04-24 11:24 4.08802 98.01818 21687 ft 457 kts 291°
2026-04-24 11:25 4.09955 97.98840 22118 ft 460 kts 291°
2026-04-24 11:25 4.11114 97.95845 22550 ft 463 kts 291°
2026-04-24 11:25 4.12281 97.92833 22980 ft 465 kts 291°
2026-04-24 11:25 4.13457 97.89802 23404 ft 468 kts 291°
2026-04-24 11:26 4.14641 97.86750 23760 ft 471 kts 291°
2026-04-24 11:26 4.15827 97.83686 24109 ft 473 kts 291°
2026-04-24 11:26 4.17020 97.80604 24463 ft 475 kts 291°
2026-04-24 11:26 4.18218 97.77513 24807 ft 478 kts 291°
2026-04-24 11:27 4.19424 97.74400 25157 ft 480 kts 291°
2026-04-24 11:27 4.20635 97.71277 25501 ft 483 kts 291°
2026-04-24 11:27 4.21854 97.68136 25851 ft 485 kts 291°
2026-04-24 11:27 4.23076 97.64981 26200 ft 487 kts 291°
2026-04-24 11:28 4.24306 97.61808 26541 ft 489 kts 291°
2026-04-24 11:28 4.25541 97.58621 26884 ft 492 kts 291°
2026-04-24 11:28 4.26781 97.55420 27222 ft 494 kts 291°
2026-04-24 11:28 4.28026 97.52199 27572 ft 496 kts 291°
2026-04-24 11:29 4.29279 97.48967 27895 ft 499 kts 291°
2026-04-24 11:29 4.30541 97.45719 28224 ft 502 kts 291°
2026-04-24 11:29 4.31802 97.42458 28573 ft 504 kts 291°
2026-04-24 11:29 4.33073 97.39170 28900 ft 506 kts 291°
2026-04-24 11:30 4.34348 97.35876 29240 ft 509 kts 291°
2026-04-24 11:30 4.35633 97.32560 29558 ft 512 kts 291°
2026-04-24 11:30 4.36486 97.30356 29800 ft 513 kts 291°
2026-04-24 11:30 4.37779 97.27014 30085 ft 516 kts 291°
2026-04-24 11:31 4.39077 97.23654 30356 ft 518 kts 291°
2026-04-24 11:31 4.40144 97.20156 30622 ft 520 kts 281°
2026-04-24 11:31 4.40531 97.16564 30989 ft 519 kts 270°
2026-04-24 11:31 4.40286 97.13019 31391 ft 517 kts 262°
2026-04-24 11:32 4.39537 97.08272 31952 ft 515 kts 259°
2026-04-24 11:32 4.39170 97.05926 32220 ft 514 kts 261°
2026-04-24 11:32 4.38752 97.02366 32623 ft 514 kts 263°
2026-04-24 11:32 4.38394 96.98808 33042 ft 513 kts 263°
2026-04-24 11:33 4.37949 96.95268 33450 ft 511 kts 261°
2026-04-24 11:33 4.37447 96.91739 33759 ft 513 kts 261°
2026-04-24 11:33 4.36986 96.88188 33901 ft 514 kts 262°
2026-04-24 11:33 4.36573 96.84643 33912 ft 511 kts 263°
2026-04-24 11:34 4.35705 96.77596 33904 ft 508 kts 264°
2026-04-24 11:34 4.35716 96.74059 33896 ft 508 kts 275°
2026-04-24 11:34 4.36392 96.70586 33889 ft 509 kts 286°